Regional Weather Roundup
Issued by NWS Midland/Odessa, TX

Skip options and go directly to product.
Home | Oldest Version | Previous Version | Current Version | All | Text Only | Save Text | Print | Product List | Glossary On

Skip product version selection by date and time.   
635
ASUS44 KMAF 010710
RWRMAF
MIDLAND AREA WEATHER ROUNDUP
NATIONAL WEATHER SERVICE MIDLAND TX
200 AM CDT WED JUN 01 2016

...IN SOUTHWEST TEXAS AND SOUTHEAST NEW MEXICO...

CITY           SKY/WX    TMP DP  RH WIND       PRES   REMARKS
ALPINE         CLOUDY    63  52  67 SW12      30.05S
ANDREWS        FAIR      63  56  80 CALM      29.97S
ARTESIA        CLOUDY    59  57  94 NW12      30.02S
BIG SPRING     CLOUDY    63  59  86 S3        29.97F
CARLSBAD       CLOUDY    61  55  81 W9        29.99S
DRYDEN           N/A     66  60  81 NW5       29.90F
FORT STOCKTON  NOT AVBL
GUAD PASS      NOT AVBL
HOBBS          CLOUDY    59  59 100 N7        30.01F
MARFA          CLOUDY    58  54  86 CALM      30.04S
MIDLAND AIRPK  LGT RAIN  64  59  81 W3        29.96F
MIDLAND INTL   LGT RAIN  64  58  80 E12       29.95F
ODESSA         LGT RAIN  63  57  81 SE13      29.94F
PECOS          MOCLDY    64  61  87 N5        29.97R
PRESIDIO       NOT AVBL
SEMINOLE       CLOUDY    63  59  89 N7        30.03R
SNYDER           N/A     67  65  93 NE6       29.96F
WINK           LGT RAIN  65  59  81 N9        29.97S
$$
...OTHER STATIONS IN TEXAS...

CITY           SKY/WX    TMP DP  RH WIND       PRES   REMARKS
ABILENE        CLOUDY    67  66  97 E5        29.94R
AMARILLO       CLOUDY    60  57  89 SE6       30.04F
AUSTIN         FOG       67  66  97 CALM      29.85S VSB 1/4
BROWNSVILLE    TSTM      72  71  97 NE22G35   29.90R FOG
CORPUS CHRISTI CLOUDY    75  69  81 SE5       29.77F
DALLAS FTW     CLOUDY    70  65  84 W3        29.88F
DEL RIO        CLOUDY    72  69  90 SE3       29.89R
EL PASO        MOCLDY    68  42  38 E5        29.97R
HOUSTON INT    CLOUDY    75  72  90 E7        29.83F
LUBBOCK        LGT RAIN  59  57  93 NW12      30.05R
SAN ANGELO     MOCLDY    68  64  87 NE13      29.93R
SAN ANTONIO    MOCLDY    68  66  93 N3        29.86R
WACO           CLOUDY    69  67  93 NE5       29.88S
WICHITA FALLS  NOT AVBL
$$
...OTHER LOCATIONS IN NEW MEXICO...

CITY           SKY/WX    TMP DP  RH WIND       PRES   REMARKS
ALAMAGORDO     MOCLDY    64  45  48 S9        30.00R
ALBUQUERQUE    PTCLDY    61  41  47 E23G32    30.07R
CANNON AFB     CLOUDY    57  57 100 NE6       30.05R
CLOVIS         CLOUDY    57  52  82 NE13      30.05F
HOLLOMAN AFB   MOCLDY    63  47  55 SW1       29.97R
ROSWELL        CLEAR     60  52  74 N8        30.02S
RUIDOSO          N/A     48  41  76 S9        30.19S
SANTA FE       CLOUDY    54  41  61 S13       30.14R
TRUTH OR CONSE MOCLDY    65  43  44 NE3       30.00S
TUCUMCARI      LGT RAIN  58  54  86 SE9       30.04S
$$

USA.gov is the U.S. government's official web portal to all federal, state and local government web resources and services.